Delta Virtual Airport Information Service

San Juan Luis Munoz Marin International Airport

ICAO: TJSJ Country: Puerto Rico
Latitude: 18.4394 Longitude: -66.0018
Latest Arrival : JBU331 (MDPC-TJSJ) Latest Departure : AAL1091 (TJSJ-KMIA)


WX CaptureLIVE
Data provided by noaa.gov | Fetched at 18:11:09

METAR : TJSJ 172156Z 08007KT 10SM SCT025 SCT110 29/25 A2994 RMK AO2 SLP139 SHRA DSNT NW T02940250

TAF : TJSJ 172156Z 08007KT 10SM SCT025 SCT110 29/25 A2994 RMK AO2 SLP139 SHRA DSNT NW T02940250


Runway Data for TJSJ
Data provided by openaviationdata.com

Runway ID Mag Var Hdg Length Elevation Surface ILS Freq ILS Id ILS Slope
8 -11 77° 10005 ft 9 ft Asphalt 110.3 ISJU 3
10 -11 101° 8013 ft 9 ft Concrete 109.7 ICLA 3
26 -11 257° 10005 ft 9 ft Asphalt -- -- --
28 -11 281° 8013 ft 9 ft Concrete -- -- --

San Juan Luis Munoz Marin International Airport, Puerto Rico
Use only for reference purposes



Not for navigational purposes.